Renton, WA

4:49 AM PDT on July 26, 2017 (GMT -0700)
Renton Municipal

Weather History for KRNT - November, 2013

Change the Weather History Date:

Friday, November 29, 2013

  Actual Average Record
Temperature  
Mean Temperature 42 °F -  
Max Temperature 48 °F 47 °F 61 °F (1999)
Min Temperature 37 °F 37 °F 18 °F (2006)
Degree Days  
Heating Degree Days 22    
Moisture  
Dew Point 34 °F    
Average Humidity 69    
Maximum Humidity 93    
Minimum Humidity 43    
Precipitation  
Precipitation 0.01 in - - ()
Sea Level Pressure  
Sea Level Pressure 30.29 in    
Wind  
Wind Speed 2 mph (SE)    
Max Wind Speed 6 mph    
Max Gust Speed -    
Visibility 7 miles    
Events Rain    
Averages and records for this station are not official NWS values.
T = Trace of Precipitation, MM = Missing Value Source: NWS Daily Summary

Daily Weather History Graph

Daily Weather History Graph

Search for Another Location

Airport or City:

Trip Planner

Search our weather history database for the weather conditions in past years. The results will help you decide how hot, cold, wet, or windy it might be!

Date:

Astronomy

Nov. 29, 2013 Rise Set
Actual Time 7:33 AM PST 4:20 PM PST
Civil Twilight 6:58 AM PST 4:55 PM PST
Nautical Twilight 6:20 AM PST 5:34 PM PST
Astronomical Twilight 5:43 AM PST 6:11 PM PST
Moon 3:31 AM PST (11/29) 2:20 PM PST (11/29)
Length of Visible Light 9h 56m
Length of Day
8h 47m
Waning Crescent, 13% of the Moon is Illuminated
Nov 29
Waning Crescent
Dec 2
New
Dec 9
First Quarter
Dec 17
Full
Dec 25
Last Quarter

Hourly Weather History & Observations

Time (PST) Temp. Windchill Dew Point Humidity Pressure Visibility Wind Dir Wind Speed Gust Speed Precip Events Conditions
12:53 AM 37.0 °F 33.3 °F 32.0 °F 82% 30.22 in 4.0 mi SE 4.6 mph - N/A   Haze
1:53 AM 37.0 °F 34.5 °F 30.9 °F 79% 30.23 in 6.0 mi SE 3.5 mph - N/A   Haze
2:53 AM 37.9 °F 34.4 °F 32.0 °F 79% 30.22 in 6.0 mi ESE 4.6 mph - N/A   Haze
3:53 AM 37.9 °F - 32.0 °F 79% 30.22 in 6.0 mi Calm Calm - N/A   Haze
4:53 AM 39.0 °F 36.8 °F 30.9 °F 73% 30.22 in 8.0 mi ESE 3.5 mph - N/A   Overcast
5:53 AM 39.9 °F - 32.0 °F 73% 30.23 in 10.0 mi Calm Calm - N/A   Overcast
6:36 AM 41.0 °F 39.0 °F 30.2 °F 65% 30.22 in 9.0 mi ESE 3.5 mph - N/A   Overcast
6:53 AM 41.0 °F 39.0 °F 32.0 °F 70% 30.24 in 10.0 mi SSE 3.5 mph - N/A   Overcast
7:53 AM 41.0 °F 39.0 °F 32.0 °F 70% 30.26 in 10.0 mi SSE 3.5 mph - N/A   Overcast
8:53 AM 42.1 °F 40.2 °F 32.0 °F 67% 30.29 in 8.0 mi SSE 3.5 mph - N/A   Overcast
9:53 AM 43.0 °F 40.3 °F 32.0 °F 65% 30.28 in 8.0 mi South 4.6 mph - 0.00 in   Overcast
10:53 AM 45.0 °F 43.5 °F 32.0 °F 60% 30.29 in 7.0 mi SSE 3.5 mph - N/A   Overcast
11:53 AM 46.0 °F - 28.9 °F 51% 30.29 in 10.0 mi Calm Calm - N/A   Overcast
12:08 PM 46.4 °F - 30.2 °F 53% 30.28 in 10.0 mi Calm Calm - N/A   Overcast
12:53 PM 46.9 °F - 30.9 °F 54% 30.28 in 10.0 mi SSE 5.8 mph - N/A   Overcast
1:42 PM 48.2 °F - 30.2 °F 50% 30.26 in 5.0 mi South 3.5 mph - N/A   Haze
1:53 PM 46.9 °F - 30.9 °F 54% 30.28 in 5.0 mi SSE 4.6 mph - N/A   Haze
2:24 PM 46.4 °F - 30.2 °F 53% 30.28 in 2.0 mi Calm Calm - N/A   Haze
2:31 PM 46.4 °F - 28.4 °F 50% 30.28 in 1.2 mi Calm Calm - N/A   Haze
2:53 PM 46.9 °F - 30.9 °F 54% 30.30 in 0.8 mi Calm Calm - N/A   Haze
3:34 PM 46.4 °F - 30.2 °F 53% 30.30 in 1.0 mi Calm Calm - 0.01 in Rain Light Rain
3:53 PM 46.9 °F - 30.0 °F 52% 30.32 in 1.0 mi Calm Calm - 0.01 in   Haze
4:32 PM 46.4 °F - 30.2 °F 53% 30.29 in 5.0 mi Calm Calm - N/A   Haze
4:51 PM 46.4 °F - 44.6 °F 93% 30.29 in 6.0 mi Calm Calm - N/A   Overcast
4:53 PM 46.9 °F - 44.1 °F 90% 30.31 in 7.0 mi Calm Calm - N/A   Overcast
5:53 PM 46.9 °F - 44.1 °F 90% 30.32 in 6.0 mi Calm Calm - N/A   Overcast
6:53 PM 46.9 °F - 45.0 °F 93% 30.33 in 6.0 mi Calm Calm - N/A   Overcast
7:53 PM 46.9 °F - 44.1 °F 90% 30.34 in 3.0 mi SSE 3.5 mph - 0.00 in Rain Light Rain
8:00 PM 46.4 °F - 44.6 °F 93% 30.32 in 5.0 mi Calm Calm - 0.00 in   Overcast
8:53 PM 46.9 °F - 44.1 °F 90% 30.33 in 6.0 mi Calm Calm - 0.00 in   Overcast
9:13 PM 46.4 °F - 44.6 °F 93% 30.32 in 7.0 mi Calm Calm - N/A   Overcast
9:53 PM 46.9 °F - 44.1 °F 90% 30.33 in 8.0 mi SE 3.5 mph - N/A   Overcast
10:05 PM 46.4 °F 45.2 °F 44.6 °F 93% 30.31 in 9.0 mi SE 3.5 mph - N/A   Overcast
10:28 PM 46.4 °F 45.2 °F 24.8 °F 43% 30.31 in 10.0 mi SE 3.5 mph - N/A   Overcast
10:49 PM 46.4 °F - 24.8 °F 43% 30.31 in 10.0 mi Calm Calm - N/A   Overcast
10:53 PM 46.9 °F - 28.0 °F 48% 30.33 in 10.0 mi Calm Calm - N/A   Overcast
11:53 PM 46.0 °F - 39.0 °F 76% 30.34 in 9.0 mi Calm Calm - 0.00 in Rain Light Rain